Terrell, TX

9:20 AM CST on December 05, 2016 (GMT -0600)
Terrell Municipal

Weather History for KTRL - October, 2013

Change the Weather History Date:

Saturday, October 19, 2013

  Actual Average (KDFW) Record (KDFW)
Temperature  
Mean Temperature 54 °F 67 °F  
Max Temperature 64 °F 77 °F 94 °F (1921)
Min Temperature 44 °F 56 °F 38 °F (1989)
Degree Days  
Heating Degree Days 11 2  
Month to date heating degree days 25  
Since 1 July heating degree days 31  
Cooling Degree Days 0 4  
Month to date cooling degree days 109  
Year to date cooling degree days 2686  
Growing Degree Days 4 (Base 50)    
Moisture  
Dew Point 42 °F    
Average Humidity 70    
Maximum Humidity 89    
Minimum Humidity 34    
Precipitation  
Precipitation 0.00 in 0.16 in 2.64 in (1971)
Month to date precipitation 2.42  
Year to date precipitation 29.08  
Snow  
Snow 0.00 in 0.00 in 0.00 in ()
Month to date snowfall 0.0  
Since 1 July snowfall 0.0  
Since 1 September snowfall 0.0  
Snow Depth -    
Sea Level Pressure  
Sea Level Pressure 30.14 in    
Wind  
Wind Speed 10 mph (NNW)    
Max Wind Speed 16 mph    
Max Gust Speed 24 mph    
Visibility 10 miles    
Events      
T = Trace of Precipitation, MM = Missing Value Source: NWS Daily Summary

Daily Weather History Graph

Daily Weather History Graph

Search for Another Location

Airport or City:

Trip Planner

Search our weather history database for the weather conditions in past years. The results will help you decide how hot, cold, wet, or windy it might be!

Date:

Astronomy

Oct. 19, 2013 Rise Set
Actual Time 7:32 AM CDT 6:47 PM CDT
Civil Twilight 7:07 AM CDT 7:12 PM CDT
Nautical Twilight 6:38 AM CDT 7:40 PM CDT
Astronomical Twilight 6:10 AM CDT 8:09 PM CDT
Moon 7:19 PM CDT (10/19) 8:07 AM CDT (10/19)
Length of Visible Light 12h 04m
Length of Day
11h 14m
Waxing Gibbous, 99% of the Moon is Illuminated
Oct 19
Waxing Gibbous
Oct 26
Last Quarter
Nov 3
New
Nov 9
First Quarter
Nov 17
Full

Hourly Weather History & Observations

Time (CDT) Temp. Windchill Dew Point Humidity Pressure Visibility Wind Dir Wind Speed Gust Speed Precip Events Conditions
12:53 AM 55.0 °F - 50.0 °F 83% 30.08 in 10.0 mi NNW 11.5 mph 20.7 mph N/A   Overcast
1:35 AM 53.6 °F - 48.2 °F 82% 30.09 in 10.0 mi North 15.0 mph 23.0 mph N/A   Overcast
1:53 AM 54.0 °F - 48.9 °F 83% 30.09 in 10.0 mi NNW 9.2 mph 20.7 mph N/A   Overcast
2:11 AM 53.6 °F - 48.2 °F 82% 30.11 in 10.0 mi NNW 12.7 mph - N/A   Overcast
2:27 AM 53.6 °F - 48.2 °F 82% 30.11 in 10.0 mi NNW 15.0 mph 24.2 mph N/A   Overcast
2:53 AM 52.0 °F - 46.9 °F 83% 30.11 in 10.0 mi NNW 10.4 mph 20.7 mph N/A   Overcast
3:53 AM 50.0 °F - 45.0 °F 83% 30.12 in 10.0 mi North 16.1 mph 23.0 mph N/A   Overcast
4:53 AM 48.9 °F - 44.1 °F 83% 30.13 in 10.0 mi North 8.1 mph - N/A   Mostly Cloudy
5:53 AM 48.0 °F - 43.0 °F 83% 30.14 in 10.0 mi NNW 8.1 mph 18.4 mph N/A   Overcast
6:42 AM 46.4 °F 41.9 °F 41.0 °F 81% 30.16 in 10.0 mi North 9.2 mph - N/A   Scattered Clouds
6:50 AM 46.4 °F 41.5 °F 41.0 °F 81% 30.17 in 10.0 mi North 10.4 mph - N/A   Mostly Cloudy
6:51 AM 46.0 °F 41.4 °F 41.0 °F 83% 30.16 in 10.0 mi North 9.2 mph - N/A   Mostly Cloudy
6:59 AM 46.4 °F 41.5 °F 41.0 °F 81% 30.17 in 10.0 mi North 10.4 mph - N/A   Partly Cloudy
7:53 AM 44.1 °F 39.5 °F 41.0 °F 89% 30.18 in 10.0 mi NW 8.1 mph - N/A   Scattered Clouds
8:53 AM 46.0 °F 41.4 °F 39.9 °F 79% 30.20 in 10.0 mi NNW 9.2 mph - N/A   Clear
9:53 AM 48.9 °F - 39.0 °F 69% 30.21 in 10.0 mi NNW 12.7 mph - N/A   Clear
10:53 AM 53.1 °F - 36.0 °F 52% 30.22 in 10.0 mi North 10.4 mph - N/A   Clear
11:53 AM 55.0 °F - 37.0 °F 51% 30.21 in 10.0 mi NNW 6.9 mph - N/A   Clear
12:53 PM 59.0 °F - 37.0 °F 44% 30.19 in 10.0 mi North 10.4 mph - N/A   Clear
1:53 PM 62.1 °F - 37.0 °F 39% 30.16 in 10.0 mi North 10.4 mph - N/A   Clear
2:53 PM 63.0 °F - 37.0 °F 38% 30.13 in 10.0 mi North 9.2 mph - N/A   Clear
3:53 PM 64.0 °F - 36.0 °F 35% 30.12 in 10.0 mi NNW 5.8 mph - N/A   Clear
4:53 PM 64.0 °F - 35.1 °F 34% 30.12 in 10.0 mi Calm Calm - N/A   Clear
5:53 PM 63.0 °F - 35.1 °F 35% 30.11 in 10.0 mi NW 3.5 mph - N/A   Clear
6:53 PM 57.9 °F - 39.0 °F 49% 30.10 in 10.0 mi Calm Calm - N/A   Clear
7:53 PM 53.1 °F - 42.1 °F 66% 30.10 in 9.0 mi Calm Calm - N/A   Clear
8:53 PM 51.1 °F - 45.0 °F 80% 30.11 in 5.0 mi Calm Calm - N/A   Haze
9:53 PM 50.0 °F - 45.0 °F 83% 30.10 in 10.0 mi Calm Calm - N/A   Clear
10:53 PM 48.0 °F - 45.0 °F 89% 30.10 in 10.0 mi Calm Calm - N/A   Clear
11:53 PM 46.9 °F - 43.0 °F 86% 30.09 in 10.0 mi Calm Calm - N/A   Clear